timestamp,surface_pressure_avg,surface_temp_avg,battery_voltage,lat,long
2017-09-28 00:00:00+00:00,243.6098,13.9,12.97,47.84626,-54.09684
2017-09-28 00:10:00+00:00,249.2097,13.9,12.89,47.84626,-54.09684
2017-09-28 00:20:00+00:00,248.9981,13.9,12.97,47.84626,-54.09684
2017-09-28 00:30:00+00:00,248.5998,13.9,12.97,47.84626,-54.09684
2017-09-28 00:40:00+00:00,254.1231,13.9,13.05,47.84626,-54.09684
2017-09-28 00:50:00+00:00,256.8964,13.9,13.05,47.84626,-54.09684
2017-09-28 01:00:00+00:00,256.4714,13.9,12.97,47.84626,-54.09684
2017-09-28 01:10:00+00:00,255.3564,13.9,12.89,47.84626,-54.09684
2017-09-28 01:20:00+00:00,261.8665,13.9,12.97,47.84626,-54.09684
2017-09-28 01:30:00+00:00,264.8864,13.9,12.97,47.84626,-54.09684
2017-09-28 01:40:00+00:00,263.0331,13.9,12.97,47.84626,-54.09684
2017-09-28 01:50:00+00:00,265.3781,13.9,12.97,47.84626,-54.09684
2017-09-28 02:00:00+00:00,276.0414,13.9,12.97,47.84626,-54.09684
2017-09-28 02:10:00+00:00,274.2847,13.9,12.89,47.84626,-54.09684
2017-09-28 02:20:00+00:00,272.1198,13.9,12.97,47.84626,-54.09684
2017-09-28 02:30:00+00:00,283.0847,13.9,12.97,47.84626,-54.09684
2017-09-28 02:40:00+00:00,291.7664,13.9,12.97,47.84626,-54.09684
2017-09-28 02:50:00+00:00,285.273,13.87,12.97,47.84626,-54.09684
2017-09-28 03:00:00+00:00,288.3714,13.84,12.97,47.84626,-54.09684
2017-09-28 03:10:00+00:00,300.488,13.88,12.89,47.84626,-54.09684
2017-09-28 03:20:00+00:00,303.363,13.86,12.97,47.84626,-54.09684
2017-09-28 03:30:00+00:00,298.8113,13.84,12.97,47.84626,-54.09684
2017-09-28 03:40:00+00:00,305.9747,13.84,12.97,47.84626,-54.09684
2017-09-28 03:50:00+00:00,315.7029,13.87,12.97,47.84626,-54.09684
2017-09-28 04:00:00+00:00,312.3196,13.86,12.89,47.84626,-54.09684
2017-09-28 04:10:00+00:00,312.6081,13.85,12.81,47.84626,-54.09684
2017-09-28 04:20:00+00:00,318.478,13.86,12.89,47.84626,-54.09684
2017-09-28 04:30:00+00:00,320.738,13.86,12.89,47.84626,-54.09684
2017-09-28 04:40:00+00:00,316.688,13.86,12.97,47.84626,-54.09684
2017-09-28 04:50:00+00:00,322.9913,13.84,12.97,47.84626,-54.09684
2017-09-28 05:00:00+00:00,322.8963,13.85,12.89,47.84626,-54.09684
2017-09-28 05:10:00+00:00,313.9997,13.8,12.81,47.84626,-54.09684
2017-09-28 05:20:00+00:00,312.7263,13.8,12.89,47.84626,-54.09684
2017-09-28 05:30:00+00:00,321.9213,13.8,12.89,47.84626,-54.09684
2017-09-28 05:40:00+00:00,318.6547,13.8,12.89,47.84626,-54.09684
2017-09-28 05:50:00+00:00,311.9446,13.8,12.97,47.84626,-54.09684
2017-09-28 06:00:00+00:00,312.973,13.8,12.89,47.84626,-54.09684
2017-09-28 06:10:00+00:00,317.5297,13.8,12.81,47.84626,-54.09684
2017-09-28 06:20:00+00:00,311.1463,13.8,12.89,47.84626,-54.09684
2017-09-28 06:30:00+00:00,306.9097,13.8,12.89,47.84626,-54.09684
2017-09-28 06:40:00+00:00,307.6947,13.8,12.89,47.84626,-54.09684
2017-09-28 06:50:00+00:00,304.8047,13.8,12.89,47.84626,-54.09684
2017-09-28 07:00:00+00:00,299.0647,13.8,12.89,47.84626,-54.09684
2017-09-28 07:10:00+00:00,298.0814,13.8,12.81,47.84626,-54.09684
2017-09-28 07:20:00+00:00,296.6347,13.8,12.89,47.84626,-54.09684
2017-09-28 07:30:00+00:00,287.3881,13.8,12.89,47.84626,-54.09684
2017-09-28 07:40:00+00:00,282.6231,13.79,12.89,47.84626,-54.09684
2017-09-28 07:50:00+00:00,282.8214,13.8,12.89,47.84626,-54.09684
2017-09-28 08:00:00+00:00,277.3364,13.8,12.89,47.84626,-54.09684
2017-09-28 08:10:00+00:00,266.6114,13.74,12.81,47.84626,-54.09684
2017-09-28 08:20:00+00:00,260.3797,13.74,12.89,47.84626,-54.09684
2017-09-28 08:30:00+00:00,255.5497,13.76,12.89,47.84626,-54.09684
2017-09-28 08:40:00+00:00,251.5647,13.74,12.89,47.84626,-54.09684
2017-09-28 08:50:00+00:00,249.7281,13.7,12.89,47.84626,-54.09684
2017-09-28 09:00:00+00:00,250.3881,13.7,12.89,47.84626,-54.09684
2017-09-28 09:10:00+00:00,250.3047,13.7,12.81,47.84626,-54.09684
2017-09-28 09:20:00+00:00,241.9431,13.69,12.89,47.84626,-54.09684
2017-09-28 09:30:00+00:00,236.0398,13.7,12.89,47.84626,-54.09684
2017-09-28 09:40:00+00:00,236.9181,13.7,12.89,47.84626,-54.09684
2017-09-28 09:50:00+00:00,236.5948,13.73,12.89,47.84626,-54.09684
2017-09-28 10:00:00+00:00,227.3748,13.76,12.89,47.84626,-54.09684
2017-09-28 10:10:00+00:00,229.8164,13.75,12.81,47.84626,-54.09684
2017-09-28 10:20:00+00:00,234.8047,13.74,12.89,47.84626,-54.09684
2017-09-28 10:30:00+00:00,227.8514,13.7,12.89,47.84626,-54.09684
2017-09-28 10:40:00+00:00,223.9698,13.7,12.89,47.84626,-54.09684
2017-09-28 10:50:00+00:00,234.2731,13.7,12.89,47.84626,-54.09684
2017-09-28 11:00:00+00:00,243.4864,13.7,12.89,47.84626,-54.09684
2017-09-28 11:10:00+00:00,241.8998,13.71,12.81,47.84626,-54.09684
2017-09-28 11:20:00+00:00,236.1064,13.72,12.89,47.84626,-54.09684
2017-09-28 11:30:00+00:00,241.6214,13.7,12.89,47.84626,-54.09684
2017-09-28 11:40:00+00:00,244.2981,13.74,12.97,47.84626,-54.09684
2017-09-28 11:50:00+00:00,238.8981,13.75,12.97,47.84626,-54.09684
2017-09-28 12:00:00+00:00,234.2997,13.72,12.97,47.84626,-54.09684
2017-09-28 12:10:00+00:00,243.7414,13.7,12.89,47.84626,-54.09684
2017-09-28 12:20:00+00:00,250.4848,13.74,13.05,47.84626,-54.09684
2017-09-28 12:30:00+00:00,247.4514,13.73,12.97,47.84626,-54.09684
2017-09-28 12:40:00+00:00,253.1314,13.7,13.05,47.84626,-54.09684
2017-09-28 12:50:00+00:00,262.2214,13.7,13.05,47.84626,-54.09684
2017-09-28 13:00:00+00:00,261.7897,13.74,12.97,47.84626,-54.09684
2017-09-28 13:10:00+00:00,257.9565,13.76,12.89,47.84626,-54.09684
2017-09-28 13:20:00+00:00,265.0197,13.75,12.89,47.84626,-54.09684
2017-09-28 13:30:00+00:00,264.7214,13.77,12.89,47.84626,-54.09684
2017-09-28 13:40:00+00:00,257.3547,13.77,12.97,47.84626,-54.09684
2017-09-28 13:50:00+00:00,257.408,13.76,12.97,47.84626,-54.09684
2017-09-28 14:00:00+00:00,267.9547,13.76,12.89,47.84626,-54.09684
2017-09-28 14:10:00+00:00,270.8364,13.78,12.89,47.84626,-54.09684
2017-09-28 14:20:00+00:00,269.3697,13.78,12.97,47.84626,-54.09684
2017-09-28 14:30:00+00:00,274.1381,13.78,12.97,47.84626,-54.09684
2017-09-28 14:40:00+00:00,284.208,13.78,12.97,47.84626,-54.09684
2017-09-28 14:50:00+00:00,288.503,13.8,12.97,47.84626,-54.09684
2017-09-28 15:00:00+00:00,291.6913,13.8,12.97,47.84626,-54.09684
2017-09-28 15:10:00+00:00,301.3397,13.8,12.89,47.84626,-54.09684
2017-09-28 15:20:00+00:00,304.0914,13.8,12.89,47.84626,-54.09684
2017-09-28 15:30:00+00:00,298.198,13.79,12.97,47.84626,-54.09684
2017-09-28 15:40:00+00:00,301.8347,13.8,12.97,47.84626,-54.09684
2017-09-28 15:50:00+00:00,313.8346,13.8,12.97,47.84626,-54.09684
2017-09-28 16:00:00+00:00,313.1296,13.8,12.97,47.84626,-54.09684
2017-09-28 16:10:00+00:00,306.1931,13.8,12.89,47.84626,-54.09684
2017-09-28 16:20:00+00:00,314.0497,13.8,12.97,47.84626,-54.09684
2017-09-28 16:30:00+00:00,323.7079,13.8,12.97,47.84626,-54.09684
2017-09-28 16:40:00+00:00,319.4413,13.82,12.97,47.84626,-54.09684
2017-09-28 16:50:00+00:00,319.6763,13.84,12.97,47.84626,-54.09684
2017-09-28 17:00:00+00:00,332.6796,13.84,12.97,47.84626,-54.09684
2017-09-28 17:10:00+00:00,333.9163,13.84,12.89,47.84626,-54.09684
2017-09-28 17:20:00+00:00,325.8813,13.86,12.97,47.84626,-54.09684
2017-09-28 17:30:00+00:00,328.5179,13.86,12.97,47.84626,-54.09684
2017-09-28 17:40:00+00:00,331.4363,13.88,12.97,47.84626,-54.09684
2017-09-28 17:50:00+00:00,330.2947,13.87,12.97,47.84626,-54.09684
2017-09-28 18:00:00+00:00,322.7747,13.86,12.97,47.84626,-54.09684
2017-09-28 18:10:00+00:00,319.4163,13.86,12.89,47.84626,-54.09684
2017-09-28 18:20:00+00:00,320.7996,13.84,12.97,47.84626,-54.09684
2017-09-28 18:30:00+00:00,325.4347,13.86,12.97,47.84626,-54.09684
2017-09-28 18:40:00+00:00,320.1414,13.86,12.97,47.84626,-54.09684
2017-09-28 18:50:00+00:00,313.7463,13.86,12.97,47.84626,-54.09684
2017-09-28 19:00:00+00:00,315.8897,13.83,12.89,47.84626,-54.09684
2017-09-28 19:10:00+00:00,324.778,13.83,12.81,47.84626,-54.09684
2017-09-28 19:20:00+00:00,320.338,13.84,12.89,47.84626,-54.09684
2017-09-28 19:30:00+00:00,310.4697,13.84,12.89,47.84626,-54.09684
2017-09-28 19:40:00+00:00,306.323,13.85,12.97,47.84626,-54.09684
2017-09-28 19:50:00+00:00,301.9997,13.86,12.97,47.84626,-54.09684
2017-09-28 20:00:00+00:00,288.4797,13.85,12.89,47.84626,-54.09684
2017-09-28 20:10:00+00:00,280.9097,13.82,12.81,47.84626,-54.09684
2017-09-28 20:20:00+00:00,285.2247,13.83,12.89,47.84626,-54.09684
2017-09-28 20:30:00+00:00,288.9997,13.86,12.89,47.84626,-54.09684
2017-09-28 20:40:00+00:00,284.153,13.84,12.89,47.84626,-54.09684
2017-09-28 20:50:00+00:00,275.5381,13.85,12.89,47.84626,-54.09684
2017-09-28 21:00:00+00:00,277.6164,13.86,12.89,47.84626,-54.09684
2017-09-28 21:10:00+00:00,276.6948,13.86,12.81,47.84626,-54.09684
2017-09-28 21:20:00+00:00,274.0631,13.86,12.89,47.84626,-54.09684
2017-09-28 21:30:00+00:00,272.1481,13.86,12.89,47.84626,-54.09684
2017-09-28 21:40:00+00:00,269.3714,13.85,12.89,47.84626,-54.09684
2017-09-28 21:50:00+00:00,256.8647,13.84,12.89,47.84626,-54.09684
2017-09-28 22:00:00+00:00,252.9014,13.85,12.89,47.84626,-54.09684
2017-09-28 22:10:00+00:00,258.4514,13.86,12.81,47.84626,-54.09684
2017-09-28 22:20:00+00:00,256.2181,13.86,12.89,47.84626,-54.09684
2017-09-28 22:30:00+00:00,251.3664,13.86,12.89,47.84626,-54.09684
2017-09-28 22:40:00+00:00,257.4614,13.87,12.89,47.84626,-54.09684
2017-09-28 22:50:00+00:00,262.9098,13.87,12.89,47.84626,-54.09684
2017-09-28 23:00:00+00:00,260.5864,13.85,12.89,47.84626,-54.09684
2017-09-28 23:10:00+00:00,260.4197,13.83,12.81,47.84626,-54.09684
2017-09-28 23:20:00+00:00,269.1014,13.83,12.89,47.84626,-54.09684
2017-09-28 23:30:00+00:00,270.6414,13.83,12.89,47.84626,-54.09684
2017-09-28 23:40:00+00:00,267.9281,13.8,12.89,47.84626,-54.09684
2017-09-28 23:50:00+00:00,274.9581,13.8,12.89,47.84626,-54.09684
